STARLINK-11552, 62907

Orbit data source: Space-Track

STARLINK-11552, 62907 is a payload satellite owned by SpaceX/Seattle (US) in LEO that was launched on Sat, 08 Feb 2025 UTC via an FALCON 9 launch vehicle from the Air Force Eastern Test Range (AFETR). Payload-class satellites include a variety of spacecraft equipped with specific instruments for various scientific and technological missions. These include communications satellites like Starlink; space stations such as the ISS; scientific satellites like the Hubble; Earth observation satellites from companies like Planet Labs, Umbra, and HawkEye 360; GPS; miniature CubeSats for education and research; and military/defense satellites.

Loading next visibility...
Identifier
62907, 2025-027A
Orbit
LEO
Country
Flag of USUS
Related business
Manufacturer
SpaceX/Seattle
Mission
Operational spacecraft
Bus & Motor
STARLINK V2MD, Unknown motor
Mass
960 kg wet, ~910 kg dry
Launch date (UTC)
2025-02-08 (9 months ago)
Launch vehicle
FALCON 9
Launch site
Air Force Eastern Test Range (AFETR)
Object type
Payload
Rocket body
Debris
Shape & HBR
Unknown shape, 18.1 m
Radar Cross Section
Large (>1 m²)

Expand to show TLE details & history
Last TLE update: 13 hours ago

TLE from 13 hours ago
0 STARLINK-11552
1 62907U 25027A   25312.58134575  .00344130  00000-0  25724-2 0  9998
2 62907  42.9979 357.7856 0002054 265.2464  94.8169 15.70872618 44142
Epoch: 2025-11-08T13:57Z
TLE epoch observation values (Epoch: 2025-11-08T13:57:08.272Z)
Latitude
-0.00004°
Longitude
100.49219°
Altitude
356.289 km
Speed
7.697 km/s
True Right ascension
23h 51m 08s
True Declination
0° 00' 00"
Sunlit
Object was in full shadow at epoch
Visualization orbit readout
Latitude
Unknown
Longitude
Unknown
Altitude
Unknown
Speed
Unknown
Apparent Right ascension
Unknown
Apparent Declination
Unknown
Sunlit
N/A
Visualization observer readout
Local Sidereal Time
22:47:06
Azimuth
Unknown
Elevation
Unknown
Doppler factor
Unknown
Orbital elements
Apogee altitude
359.767 km
Perigee altitude
357 km
Semi-major axis
6,736.521 km
Eccentricity
0.00021
Inclination
42.9979°
RAAN
357.7856°
Arg. of periapsis
265.2464°
True anomaly
94.84035°
Mean anomaly
94.8169°
Eccentric anomaly
94.82863°
Mean motion
3.92545 °/min
Orbital period
91.71 mins
BSTAR
0.0025724
Loading maneuver chart data...
Computing Atmospheric mass density...
Loading historical data...
Loading historical data...
Loading historical data...
Loading historical data...
Loading historical data...
Loading historical data...
Loading historical data...

Documentation

Showing up to 5 results
|